Location: Asheville, NC
(35.6000°N, 82.5500°W)
Time: 08:46:58
(UTC-05:00)

M-CUBED/EXP-1 PRIME - Pass Details

Date: 18 February 2018
Orbit: 431 x 677 km, 101.7° (Epoch: 19 February)

Event Time Altitude Azimuth Distance (km) Brightness Sun altitude
Rises 05:28:58 0° 42° (NE) 2,544 ? -21.9°
Reaches altitude 10° 05:31:52 10° 69° (ENE) 1,709 ? -21.3°
Maximum altitude 05:33:45 14° 100° (E) 1,528 ? -20.9°
Drops below altitude 10° 05:35:41 10° 131° (SE) 1,773 ? -20.6°
Sets 05:38:48 0° 158° (SSE) 2,721 ? -19.9°
